Regional Weather Roundup
Issued by NWS

Home | Current Version | Previous Version | Text Only | Print | Product List | Glossary On
Versions: 1 2 3 4 5 6 7 8 9 10 11 12 13 14 15 16 17 18 19 20 21 22 23 24 25 26 27 28 29 30 31 32 33 34 35 36 37 38 39 40 41 42 43 44 45 46 47 48 49 50
000
ASUS45 KPSR 281900
RWRAZ

ARIZONA HOURLY REGIONAL WEATHER ROUNDUP
NATIONAL WEATHER SERVICE PHOENIX AZ
1200 PM MST TUE JUL 28 2015

NOTE: FAIR INDICATES FEW OR NO CLOUDS BELOW 12,000 FEET WITH NO
SIGNIFICANT WEATHER AND/OR OBSTRUCTIONS TO VISIBILITY.

AZZ001>003-036-282000-
NORTHWEST ARIZONA

CITY           SKY/WX    TMP DP  RH WIND       PRES   REMARKS
KINGMAN        SUNNY     93  31  11 W14       30.05S
$$

AZZ004>008-015-016-018-282000-
NORTH CENTRAL ARIZONA

CITY           SKY/WX    TMP DP  RH WIND       PRES   REMARKS
GRAND CANYON   SUNNY     81  25  12 S8G21     30.28S
WILLIAMS       SUNNY     81  27  13 W13G18    30.35S
PRESCOTT       MOSUNNY   86  41  20 CALM      30.16F
FLAGSTAFF      NOT AVBL
PAYSON         CLOUDY    82  50  32 SW6       30.20S
PAGE           SUNNY     89  27  10 VRB3      30.10F
$$

AZZ009>014-017-282000-
NORTHEAST ARIZONA

CITY           SKY/WX    TMP DP  RH WIND       PRES   REMARKS
WINSLOW        NOT AVBL
SAINT JOHNS    MOSUNNY   83  44  25 VRB7      30.19F
WINDOW ROCK    CLOUDY    77  41  27 SW10      30.29S
SHOW LOW       PTSUNNY   79  45  29 CALM      30.27F
$$

AZZ023-282000-
GREATER PHOENIX AREA

CITY           SKY/WX    TMP DP  RH WIND       PRES   REMARKS
PHOENIX        PTSUNNY   99  55  23 VRB3      29.87F
GLENDALE       PTSUNNY   99  57  25 E5        29.89F
LUKE AFB       MOSUNNY   99  57  25 S9        29.87S
DEER VALLEY    PTSUNNY   94  56  27 VRB3      29.90F
SCOTTSDALE     PTSUNNY   95  54  25 CALM      29.92F
MESA-FALCON    PTSUNNY   99  55  23 SW6       29.89F
MESA-GATEWAY   MOSUNNY   97  55  24 W5        29.91F
CHANDLER       PTSUNNY   99  54  22 SW7       29.88F
$$

AZZ027-028-282000-
SOUTHWEST MARICOPA COUNTY AND PINAL COUNTY

CITY           SKY/WX    TMP DP  RH WIND       PRES   REMARKS
CASA GRANDE    SUNNY     99  55  23 CALM      29.88F
$$

AZZ503-504-507>509-282000-
SOUTHEAST ARIZONA

CITY           SKY/WX    TMP DP  RH WIND       PRES   REMARKS
TUCSON         SUNNY     98  58  26 NE8       29.98F
DAVIS-MONTHAN  SUNNY     93  59  31 N5        29.96F
NOGALES        MOSUNNY   90  62  39 VRB5      30.06F
SIERRA VISTA   SUNNY     86  55  33 VRB5      30.13F
SAFFORD        PTSUNNY   92  52  25 CALM      29.99F
$$

AZZ020-021-025-026-031-282000-
SOUTHWEST ARIZONA

CITY           SKY/WX    TMP DP  RH WIND       PRES   REMARKS
YUMA           PTSUNNY   98  67  36 S7        29.81F HX 102
$$

CAZ031-033-041-043-047-048-061-282000-
SOUTHERN CALIFORNIA

CITY           SKY/WX    TMP DP  RH WIND       PRES   REMARKS
DOWNTOWN L.A.  SUNNY     84  62  47 CALM      29.88F
L.A. AIRPORT   SUNNY     75  62  64 W12       29.91S
SAN DIEGO      MOSUNNY   74  61  63 W9        29.92S
BURBANK        SUNNY     83  60  45 SE8       29.90F
ONTARIO        SUNNY     85  57  38 VRB3      29.90F
RIVERSIDE      SUNNY     84  57  39 CALM      29.90F
PALM SPRINGS   SUNNY     98  49  18 NE6       29.84F
EL CENTRO NAS  MOSUNNY   98  51  20 CALM      29.81F
IMPERIAL       SUNNY     98  58  26 SE7       29.79F
BLYTHE         SUNNY    100  56  23 SE8       29.82F
$$

NVZ020-UTZ003-282000-
SOUTHERN NEVADA-UTAH

CITY           SKY/WX    TMP DP  RH WIND       PRES   REMARKS
LAS VEGAS      NOT AVBL
SALT LAKE CITY SUNNY     71  26  18 VRB5G16   30.27S
$$

NMZ009-TXZ055-282000-
NEW MEXICO-WEST TEXAS

CITY           SKY/WX    TMP DP  RH WIND       PRES   REMARKS
ALBUQUERQUE    PTSUNNY   88  46  23 NW7       30.15F
EL PASO        MOSUNNY   94  54  25 W7        30.03F
$$


........................KEY........................
SKY/WX - SKY CONDITION/WEATHER
TMP    - TEMPERATURE IN FAHRENHEIT
DP     - DEW POINT IN FAHRENHEIT
RH     - RELATIVE HUMIDITY IN PERCENT
WIND   - DIRECTION AND SPEED IN MILES PER HOUR (MPH)
VRB    - VARIABLE WIND DIRECTION
PRES   - MEAN SEA LEVEL PRESSURE IN INCHES OF MERCURY
         F - FALLING PRESSURE   R - RISING PRESSURE
         S - STEADY PRESSURE
VSB    - VISIBILITY IN MILES
HX     - HEAT INDEX IN FAHRENHEIT
WCI    - WIND CHILL INDEX IN FAHRENHEIT
TC     - TEMPERATURE IN CELSIUS WHICH IS ALSO KNOWN AS
         TEMPERATURE IN CENTIGRADE
AFB    - AIR FORCE BASE
         LUKE AFB IS LUKE AIR FORCE BASE
         DAVIS-MONTHAN IS DAVIS-MONTHAN AIR FORCE BASE
NAS    - NAVAL AIR STATION
         EL CENTRO NAS IS EL CENTRO NAVAL AIR STATION
N/A    - NOT AVAILABLE




USA.gov is the U.S. government's official web portal to all federal, state and local government web resources and services.